Home > Weather > Cape Dorset > Past weeks

Flag for Canada Past Weather in Cape Dorset, Nunavut, Canada — Yesterday and Last 2 Weeks

Now
45 °F

Scattered clouds.


Feels Like: 42 °F
Forecast: 41 / 46 °F
Wind: 5 mph from East

Location: Cape Dorset

Current Time: Jun 30, 2016 at 10:11:46 AM

Latest Report: Jun 30, 2016 at 9:00 AM


Visibility: 15 mi

Pressure: 30.01 "Hg

Humidity: 81%

Dew Point: 39 °F

Location of Cape DorsetLocation

Past Weather in Cape Dorset — Graph

°F

Cape Dorset Temperature Yesterday

Maximum temperature yesterday: 48 °F (at 3:00 PM)
Minimum temperature yesterday: 41 °F (at 2:00 AM)
Average temperature yesterday: 45 °F

High & Low Weather Summary for the Past Weeks

 TemperatureHumidityPressure
High52 °F (Jun 15, 4:00 PM)100% (Jun 18, 10:55 PM)30.30 "Hg (Jun 18, 10:55 PM)
Low34 °F (Jun 18, 10:55 PM)50% (Jun 16, 2:00 PM)29.33 "Hg (Jun 22, 6:00 PM)
Average42 °F78%29.74 "Hg
* Reported Jun 15 9:00 AM — Jun 30 9:00 AM, Cape Dorset, Weather by CustomWeather, © 2016

Note: Actual official high and low records may vary slightly from our data, if they occured in-between our weather recording intervals... More about our weather records

Advertising

Cape Dorset Weather History for the Previous 24 Hours

Scroll right to see more
 ConditionsComfort  
Time TempWeatherWind HumidityBarometerVisibility
9:00 AM
Thu, Jun 30
45 °FScattered clouds.5 mph81%30.01 "Hg15 mi
8:00 AM43 °FBroken clouds.3 mph81%30.00 "Hg15 mi
7:00 AM43 °FPassing clouds.2 mph87%30.01 "Hg15 mi
6:00 AM41 °FSunny.2 mph93%29.99 "Hg9 mi
5:00 AM41 °FSunny.2 mph87%29.98 "Hg9 mi
4:00 AM39 °FSunny.No wind93%29.98 "Hg9 mi
3:00 AM41 °FClear.2 mph93%29.98 "Hg9 mi
2:00 AM41 °FClear.3 mph87%29.97 "Hg9 mi
1:00 AM43 °FClear.10 mph93%29.96 "Hg9 mi
12:00 AM45 °FSunny.7 mph87%29.97 "Hg9 mi
11:00 PM
Wed, Jun 29
45 °FSunny.8 mph87%29.96 "Hg9 mi
10:00 PM41 °FSunny.8 mph87%29.96 "Hg9 mi
9:00 PM41 °FSunny.7 mph87%29.95 "Hg9 mi
8:00 PM45 °FSunny.15 mph76%29.93 "Hg9 mi
7:00 PM46 °FPartly sunny.9 mph71%29.94 "Hg9 mi
6:00 PM46 °FSunny.21 mph76%29.92 "Hg9 mi
5:00 PM46 °FPassing clouds.22 mph71%29.92 "Hg15 mi
4:00 PM46 °FScattered clouds.21 mph71%29.93 "Hg15 mi
3:00 PM48 °FBroken clouds.18 mph66%29.93 "Hg15 mi
2:00 PM46 °FBroken clouds.22 mph71%29.93 "Hg15 mi
1:00 PM46 °FPartly sunny.20 mph66%29.91 "Hg15 mi
12:00 PM45 °FBroken clouds.22 mph71%29.92 "Hg15 mi
11:00 AM43 °FPartly sunny.17 mph76%29.92 "Hg15 mi
10:00 AM43 °FPartly sunny.16 mph76%29.92 "Hg15 mi
Weather by CustomWeather, © 2016

See weather overviewHow to use our weather pages